Weather History for KCAD - October, 2013

Change the Weather History Date:

Thursday, October 24, 2013

  Actual Average Record
Temperature  
Mean Temperature 35 °F -  
Max Temperature 43 °F 54 °F 78 °F (1963)
Min Temperature 27 °F 34 °F 15 °F (1949)
Degree Days  
Heating Degree Days 30    
Moisture  
Dew Point 30 °F    
Average Humidity 85    
Maximum Humidity 93    
Minimum Humidity 56    
Precipitation  
Precipitation 0.00 in - - ()
Sea Level Pressure  
Sea Level Pressure 29.98 in    
Wind  
Wind Speed 5 mph (West)    
Max Wind Speed 15 mph    
Max Gust Speed 22 mph    
Visibility 9 miles    
Events Snow    
Averages and records for this station are not official NWS values.
T = Trace of Precipitation, MM = Missing Value Source: NWS Daily Summary

Daily Weather History Graph

Daily Weather History Graph

Search for Another Location

Airport or City:

Trip Planner

Search our weather history database for the weather conditions in past years. The results will help you decide how hot, cold, wet, or windy it might be!

Date:

Astronomy

Oct. 24, 2013 Rise Set
Actual Time 8:08 AM EDT 6:42 PM EDT
Civil Twilight 7:38 AM EDT 7:12 PM EDT
Nautical Twilight 7:04 AM EDT 7:46 PM EDT
Astronomical Twilight 6:31 AM EDT 8:19 PM EDT
Moon 11:01 PM EDT (10/24) 1:13 PM EDT (10/24)
Length of Visible Light 11h 33m
Length of Day
10h 34m
Waning Gibbous, 71% of the Moon is Illuminated
Oct 24
Waning Gibbous
Oct 26
Last Quarter
Nov 3
New
Nov 10
First Quarter
Nov 17
Full

Hourly Weather History & Observations

Time (EDT) Temp. Windchill Dew Point Humidity Pressure Visibility Wind Dir Wind Speed Gust Speed Precip Events Conditions
12:14 AM 32.0 °F - 29.7 °F 91% 29.86 in 10.0 mi Calm Calm - N/A Snow Light Snow
12:35 AM 31.5 °F - 29.1 °F 91% 29.86 in 10.0 mi Calm Calm - N/A   Unknown
12:55 AM 31.5 °F 26.8 °F 29.3 °F 92% 29.86 in 10.0 mi WSW 4.6 mph - N/A   Unknown
1:14 AM 32.5 °F 27.1 °F 30.7 °F 93% 29.86 in 10.0 mi WSW 5.8 mph - N/A   Unknown
1:35 AM 32.7 °F 28.3 °F 30.9 °F 93% 29.87 in 10.0 mi West 4.6 mph - N/A Snow Light Snow
1:55 AM 32.5 °F 29.3 °F 30.6 °F 92% 29.87 in 5.0 mi WSW 3.5 mph - N/A Snow Light Snow
2:15 AM 31.5 °F 28.1 °F 29.1 °F 91% 29.86 in 10.0 mi SSW 3.5 mph - N/A   Unknown
2:35 AM 31.5 °F 26.8 °F 29.3 °F 92% 29.86 in 10.0 mi WSW 4.6 mph - N/A   Unknown
2:54 AM 31.5 °F 26.8 °F 29.3 °F 92% 29.87 in 10.0 mi WSW 4.6 mph - N/A   Unknown
3:15 AM 31.5 °F 25.8 °F 29.3 °F 92% 29.87 in 10.0 mi WSW 5.8 mph - N/A   Unknown
3:35 AM 31.5 °F 25.8 °F 29.3 °F 92% 29.88 in 10.0 mi WSW 5.8 mph - N/A   Unknown
3:54 AM 31.5 °F 28.1 °F 29.3 °F 92% 29.88 in 1.8 mi West 3.5 mph - N/A   Mist
4:15 AM 31.5 °F - 29.1 °F 91% 29.88 in 0.8 mi Calm Calm - N/A   Mist
4:35 AM 31.5 °F 28.1 °F 29.3 °F 92% 29.87 in 2.0 mi West 3.5 mph - N/A   Mist
4:54 AM 31.5 °F 28.1 °F 29.1 °F 91% 29.87 in 10.0 mi West 3.5 mph - N/A   Unknown
5:15 AM 28.9 °F 25.2 °F 26.6 °F 91% 29.88 in 10.0 mi West 3.5 mph - N/A   Unknown
5:35 AM 27.3 °F 20.9 °F 24.8 °F 90% 29.89 in 10.0 mi SW 5.8 mph - N/A   Unknown
5:54 AM 28.9 °F 23.9 °F 26.6 °F 91% 29.90 in 10.0 mi WSW 4.6 mph - N/A   Unknown
6:15 AM 31.5 °F 26.8 °F 29.3 °F 92% 29.90 in 10.0 mi WSW 4.6 mph - N/A Snow Light Snow
6:35 AM 31.5 °F 26.8 °F 29.1 °F 91% 29.91 in 10.0 mi West 4.6 mph - N/A Snow Light Snow
6:54 AM 31.5 °F 26.8 °F 29.1 °F 91% 29.91 in 10.0 mi West 4.6 mph - N/A Snow Light Snow
7:15 AM 31.5 °F 26.8 °F 29.1 °F 91% 29.91 in 1.8 mi West 4.6 mph - N/A Snow Light Snow
7:35 AM 32.0 °F 28.7 °F 29.7 °F 91% 29.92 in 1.5 mi WSW 3.5 mph - N/A Snow Snow
7:54 AM 32.4 °F 29.1 °F 30.6 °F 93% 29.92 in 2.5 mi WSW 3.5 mph - N/A Snow Light Snow
8:15 AM 32.5 °F 28.1 °F 30.7 °F 93% 29.92 in 2.5 mi West 4.6 mph - N/A Snow Light Snow
8:34 AM 32.4 °F 27.9 °F 30.4 °F 92% 29.93 in 1.0 mi WSW 4.6 mph - N/A Snow Light Snow
8:55 AM 33.1 °F 28.7 °F 31.1 °F 92% 29.93 in 7.0 mi West 4.6 mph - N/A Snow Light Snow
9:15 AM 32.7 °F 28.3 °F 30.7 °F 92% 29.94 in 5.0 mi West 4.6 mph - N/A Snow Light Snow
9:34 AM 33.8 °F 29.6 °F 31.5 °F 91% 29.95 in 7.0 mi West 4.6 mph - N/A Snow Light Snow
9:55 AM - - - N/A% 29.95 in - West 6.9 mph - N/A   Unknown
10:15 AM 36.1 °F 30.6 °F 32.9 °F 88% 29.95 in 10.0 mi West 6.9 mph - N/A   Overcast
10:34 AM 36.1 °F 29.3 °F 32.9 °F 88% 29.96 in 10.0 mi WNW 9.2 mph - N/A   Overcast
10:55 AM 36.1 °F 30.6 °F 32.2 °F 86% 29.97 in 10.0 mi West 6.9 mph - N/A   Unknown
11:15 AM 37.2 °F 31.9 °F 32.7 °F 84% 29.97 in 10.0 mi West 6.9 mph - N/A   Unknown
11:35 AM 38.7 °F 34.3 °F 33.3 °F 81% 29.98 in 10.0 mi West 5.8 mph - N/A   Unknown
11:55 AM 38.7 °F 31.8 °F 33.8 °F 83% 29.98 in 10.0 mi West 10.4 mph - N/A   Unknown
12:14 PM 38.8 °F 32.6 °F 34.5 °F 84% 29.99 in 10.0 mi West 9.2 mph - N/A   Unknown
12:35 PM 39.7 °F 32.7 °F 35.1 °F 83% 29.99 in 10.0 mi West 11.5 mph - N/A   Unknown
12:55 PM 41.2 °F 33.7 °F 34.9 °F 78% 29.99 in 10.0 mi WNW 13.8 mph 17.3 mph N/A   Unknown
1:14 PM 38.7 °F 31.4 °F 34.3 °F 84% 30.00 in 5.0 mi West 11.5 mph 18.4 mph N/A   Unknown
1:35 PM 41.2 °F 33.7 °F 35.2 °F 79% 30.00 in 10.0 mi NW 13.8 mph 19.6 mph N/A   Unknown
1:55 PM 36.3 °F 28.0 °F 32.7 °F 87% 30.01 in 5.0 mi WNW 12.7 mph 18.4 mph N/A Snow Light Snow
2:14 PM 36.1 °F 29.9 °F 32.5 °F 87% 30.00 in 10.0 mi West 8.1 mph - N/A   Unknown
2:35 PM 36.1 °F 31.4 °F 32.5 °F 87% 30.00 in 10.0 mi West 5.8 mph - N/A   Mostly Cloudy
2:55 PM 39.6 °F 33.0 °F 36.0 °F 87% 30.00 in 10.0 mi West 10.4 mph - N/A   Mostly Cloudy
3:14 PM 41.2 °F 35.5 °F 35.8 °F 81% 30.01 in 10.0 mi West 9.2 mph - N/A   Mostly Cloudy
3:35 PM 38.7 °F 33.6 °F 33.6 °F 82% 30.01 in 10.0 mi WSW 6.9 mph - N/A   Unknown
3:55 PM 43.2 °F 36.2 °F 31.8 °F 64% 30.01 in 10.0 mi West 13.8 mph 19.6 mph N/A   Unknown
4:14 PM 43.9 °F 36.8 °F 31.1 °F 61% 30.02 in 10.0 mi West 15.0 mph 21.9 mph N/A   Unknown
4:35 PM 43.9 °F 37.2 °F 29.7 °F 57% 30.03 in 10.0 mi West 13.8 mph 21.9 mph N/A   Unknown
4:55 PM 42.4 °F 35.3 °F 27.5 °F 56% 30.03 in 10.0 mi WNW 13.8 mph 18.4 mph N/A   Scattered Clouds
5:15 PM 41.7 °F 36.1 °F 28.6 °F 60% 30.04 in 10.0 mi West 9.2 mph - N/A   Clear
5:35 PM 41.2 °F 34.5 °F 28.4 °F 60% 30.05 in 10.0 mi West 11.5 mph 18.4 mph N/A   Clear
5:54 PM 39.0 °F 32.8 °F 28.0 °F 65% 30.05 in 10.0 mi WNW 9.2 mph - N/A   Clear
6:15 PM 38.7 °F 34.3 °F 28.6 °F 67% 30.06 in 10.0 mi West 5.8 mph - N/A   Clear
6:35 PM 36.1 °F 31.4 °F 27.3 °F 70% 30.07 in 10.0 mi West 5.8 mph - N/A   Clear
6:54 PM 36.1 °F 32.3 °F 28.4 °F 73% 30.07 in 10.0 mi West 4.6 mph - N/A   Scattered Clouds
7:15 PM 36.1 °F 32.3 °F 29.1 °F 76% 30.07 in 10.0 mi West 4.6 mph - N/A   Scattered Clouds
7:35 PM 34.3 °F 29.2 °F 28.6 °F 79% 30.08 in 10.0 mi West 5.8 mph - N/A   Clear
7:54 PM 33.8 °F 28.6 °F 27.9 °F 79% 30.08 in 10.0 mi West 5.8 mph - N/A   Clear
8:15 PM 33.8 °F 28.6 °F 28.8 °F 82% 30.09 in 10.0 mi West 5.8 mph - N/A   Clear
8:35 PM 33.8 °F 26.4 °F 29.3 °F 84% 30.09 in 10.0 mi WSW 9.2 mph - N/A   Scattered Clouds
8:54 PM 33.8 °F 27.0 °F 29.8 °F 85% 30.10 in 10.0 mi WSW 8.1 mph - N/A   Scattered Clouds
9:15 PM 32.7 °F 27.3 °F 29.7 °F 88% 30.10 in 10.0 mi West 5.8 mph - N/A   Clear
9:35 PM 31.6 °F 27.0 °F 28.4 °F 88% 30.10 in 10.0 mi WSW 4.6 mph - N/A   Scattered Clouds
9:54 PM 31.5 °F 24.9 °F 28.8 °F 90% 30.10 in 10.0 mi WSW 6.9 mph - N/A   Scattered Clouds
10:15 PM 32.4 °F 26.9 °F 30.0 °F 91% 30.10 in 10.0 mi WSW 5.8 mph - N/A   Clear
10:35 PM 31.8 °F 27.3 °F 29.1 °F 90% 30.11 in 10.0 mi West 4.6 mph - N/A   Clear
10:54 PM 31.5 °F 25.8 °F 28.9 °F 90% 30.11 in 10.0 mi West 5.8 mph - N/A   Clear
11:15 PM 31.5 °F 26.8 °F 29.1 °F 91% 30.11 in 10.0 mi West 4.6 mph - N/A   Clear
11:35 PM 31.5 °F 28.1 °F 29.1 °F 91% 30.12 in 10.0 mi NW 3.5 mph - N/A   Clear
11:54 PM 31.5 °F 26.8 °F 29.1 °F 91% 30.12 in 10.0 mi WNW 4.6 mph - N/A   Mostly Cloudy